Time,TemperatureF,DewpointF,PressureIn,WindDirection,WindDirectionDegrees,WindSpeedMPH,WindSpeedGustMPH,Humidity,HourlyPrecipIn,Conditions,Clouds,dailyrainin,SoftwareType,DateUTC
2013-04-08 00:00:00,42.4,36.7,29.95,WNW,302,3.0,-999.0,80,0.00,,,0.00,Wunderground v.1.15,2013-04-08 04:00:00,
2013-04-08 00:05:00,42.1,36.7,29.96,WNW,302,3.0,-999.0,81,0.00,,,0.00,Wunderground v.1.15,2013-04-08 04:05:00,
2013-04-08 00:10:00,41.8,36.1,29.96,WNW,302,2.0,-999.0,80,0.00,,,0.00,Wunderground v.1.15,2013-04-08 04:10:00,
2013-04-08 00:15:00,41.8,36.4,29.96,WNW,302,2.0,-999.0,81,0.00,,,0.00,Wunderground v.1.15,2013-04-08 04:15:00,
2013-04-08 00:20:00,41.8,36.4,29.96,WNW,302,3.0,-999.0,81,0.00,,,0.00,Wunderground v.1.15,2013-04-08 04:20:00,
2013-04-08 00:25:00,41.9,36.8,29.96,WNW,302,3.0,-999.0,82,0.00,,,0.00,Wunderground v.1.15,2013-04-08 04:25:00,
2013-04-08 00:30:00,42.0,36.9,29.96,WNW,302,1.0,-999.0,82,0.00,,,0.00,Wunderground v.1.15,2013-04-08 04:30:00,
2013-04-08 00:35:00,42.1,37.0,29.96,WNW,302,1.0,-999.0,82,0.00,,,0.00,Wunderground v.1.15,2013-04-08 04:35:00,
2013-04-08 00:40:00,42.0,36.6,29.97,NW,304,2.0,-999.0,81,0.00,,,0.00,Wunderground v.1.15,2013-04-08 04:40:00,
2013-04-08 00:45:00,41.8,36.1,29.97,NW,304,3.0,-999.0,80,0.00,,,0.00,Wunderground v.1.15,2013-04-08 04:45:00,
2013-04-08 00:50:00,41.9,36.5,29.97,NW,304,2.0,-999.0,81,0.00,,,0.00,Wunderground v.1.15,2013-04-08 04:50:00,
2013-04-08 00:55:00,41.9,36.5,29.97,NW,311,2.0,-999.0,81,0.00,,,0.00,Wunderground v.1.15,2013-04-08 04:55:00,
2013-04-08 01:00:00,42.0,36.6,29.97,NW,311,3.0,-999.0,81,0.00,,,0.00,Wunderground v.1.15,2013-04-08 05:00:00,
2013-04-08 01:05:00,41.9,36.5,29.97,NW,317,4.0,-999.0,81,0.00,,,0.00,Wunderground v.1.15,2013-04-08 05:05:00,
2013-04-08 01:15:00,41.7,36.0,29.97,NW,319,3.0,-999.0,80,0.00,,,0.00,Wunderground v.1.15,2013-04-08 05:15:00,
2013-04-08 01:20:00,41.6,35.9,29.97,NW,319,2.0,-999.0,80,0.00,,,0.00,Wunderground v.1.15,2013-04-08 05:20:00,
2013-04-08 01:25:00,41.4,35.7,29.97,NW,317,3.0,-999.0,80,0.00,,,0.00,Wunderground v.1.15,2013-04-08 05:25:00,
2013-04-08 01:30:00,41.3,35.6,29.97,NW,317,4.0,-999.0,80,0.00,,,0.00,Wunderground v.1.15,2013-04-08 05:30:00,
2013-04-08 01:35:00,41.1,35.4,29.98,NW,316,3.0,-999.0,80,0.00,,,0.00,Wunderground v.1.15,2013-04-08 05:35:00,
2013-04-08 01:40:00,41.0,35.0,29.98,NW,315,4.0,-999.0,79,0.00,,,0.00,Wunderground v.1.15,2013-04-08 05:40:00,
2013-04-08 01:45:00,40.9,35.2,29.98,NW,315,4.0,-999.0,80,0.00,,,0.00,Wunderground v.1.15,2013-04-08 05:45:00,
2013-04-08 01:50:00,40.9,35.2,29.98,NW,315,3.0,-999.0,80,0.00,,,0.00,Wunderground v.1.15,2013-04-08 05:50:00,
2013-04-08 01:55:00,40.8,35.1,29.98,NW,315,2.0,-999.0,80,0.00,,,0.00,Wunderground v.1.15,2013-04-08 05:55:00,
2013-04-08 02:00:00,40.7,35.0,29.98,NW,315,2.0,-999.0,80,0.00,,,0.00,Wunderground v.1.15,2013-04-08 06:00:00,
2013-04-08 02:05:00,40.7,35.0,29.98,NW,315,0.0,-999.0,80,0.00,,,0.00,Wunderground v.1.15,2013-04-08 06:05:00,
2013-04-08 02:10:00,40.6,34.9,29.98,NW,315,1.0,-999.0,80,0.00,,,0.00,Wunderground v.1.15,2013-04-08 06:10:00,
2013-04-08 02:15:00,40.6,34.9,29.98,NW,315,1.0,-999.0,80,0.00,,,0.00,Wunderground v.1.15,2013-04-08 06:15:00,
2013-04-08 02:20:00,40.5,34.8,29.98,NW,315,2.0,-999.0,80,0.00,,,0.00,Wunderground v.1.15,2013-04-08 06:20:00,
2013-04-08 02:25:00,40.5,34.8,29.98,NW,315,3.0,-999.0,80,0.00,,,0.00,Wunderground v.1.15,2013-04-08 06:25:00,
2013-04-08 02:30:00,40.4,35.0,29.98,NW,315,2.0,-999.0,81,0.00,,,0.00,Wunderground v.1.15,2013-04-08 06:30:00,
2013-04-08 02:35:00,40.3,34.9,29.98,NW,315,2.0,-999.0,81,0.00,,,0.00,Wunderground v.1.15,2013-04-08 06:35:00,
2013-04-08 02:40:00,40.2,34.8,29.98,NW,315,1.0,-999.0,81,0.00,,,0.00,Wunderground v.1.15,2013-04-08 06:40:00,
2013-04-08 02:45:00,40.1,34.7,29.98,NW,315,1.0,-999.0,81,0.00,,,0.00,Wunderground v.1.15,2013-04-08 06:45:00,
2013-04-08 02:50:00,40.0,34.6,29.99,NW,315,0.0,-999.0,81,0.00,,,0.00,Wunderground v.1.15,2013-04-08 06:50:00,
2013-04-08 02:55:00,39.9,34.5,29.98,NW,315,1.0,-999.0,81,0.00,,,0.00,Wunderground v.1.15,2013-04-08 06:55:00,
2013-04-08 03:00:00,39.8,34.4,29.98,NW,315,1.0,-999.0,81,0.00,,,0.00,Wunderground v.1.15,2013-04-08 07:00:00,
2013-04-08 03:05:00,39.8,34.8,29.98,NW,315,0.0,-999.0,82,0.00,,,0.00,Wunderground v.1.15,2013-04-08 07:05:00,
2013-04-08 03:15:00,39.7,34.7,29.98,NW,315,0.0,-999.0,82,0.00,,,0.00,Wunderground v.1.15,2013-04-08 07:15:00,
2013-04-08 03:20:00,39.7,34.7,29.98,NW,315,0.0,-999.0,82,0.00,,,0.00,Wunderground v.1.15,2013-04-08 07:20:00,
2013-04-08 03:25:00,39.7,34.7,29.99,NW,315,0.0,-999.0,82,0.00,,,0.00,Wunderground v.1.15,2013-04-08 07:25:00,
2013-04-08 03:30:00,39.7,34.7,29.99,NW,315,0.0,-999.0,82,0.00,,,0.00,Wunderground v.1.15,2013-04-08 07:30:00,
2013-04-08 03:35:00,39.7,34.7,29.99,NW,315,0.0,-999.0,82,0.00,,,0.00,Wunderground v.1.15,2013-04-08 07:35:00,
2013-04-08 03:40:00,39.7,34.7,29.99,NW,315,0.0,-999.0,82,0.00,,,0.00,Wunderground v.1.15,2013-04-08 07:40:00,
2013-04-08 03:45:00,39.7,34.7,29.99,NW,315,0.0,-999.0,82,0.00,,,0.00,Wunderground v.1.15,2013-04-08 07:45:00,
2013-04-08 03:50:00,39.7,34.7,29.99,NW,315,0.0,-999.0,82,0.00,,,0.00,Wunderground v.1.15,2013-04-08 07:50:00,
2013-04-08 03:55:00,39.7,34.7,29.99,NW,315,0.0,-999.0,82,0.00,,,0.00,Wunderground v.1.15,2013-04-08 07:55:00,
2013-04-08 04:00:00,39.7,34.7,29.99,NW,315,0.0,-999.0,82,0.00,,,0.00,Wunderground v.1.15,2013-04-08 08:00:00,
2013-04-08 04:05:00,39.7,34.7,29.99,NW,315,0.0,-999.0,82,0.00,,,0.00,Wunderground v.1.15,2013-04-08 08:05:00,
2013-04-08 04:10:00,39.6,34.6,29.99,NW,315,0.0,-999.0,82,0.00,,,0.00,Wunderground v.1.15,2013-04-08 08:10:00,
2013-04-08 04:15:00,39.6,34.9,29.99,NW,315,0.0,-999.0,83,0.00,,,0.00,Wunderground v.1.15,2013-04-08 08:15:00,
2013-04-08 04:20:00,39.5,34.5,29.99,NW,315,0.0,-999.0,82,0.00,,,0.00,Wunderground v.1.15,2013-04-08 08:20:00,
2013-04-08 04:25:00,39.4,34.4,29.99,NW,315,0.0,-999.0,82,0.00,,,0.00,Wunderground v.1.15,2013-04-08 08:25:00,
2013-04-08 04:30:00,39.3,34.3,29.99,NW,315,0.0,-999.0,82,0.00,,,0.00,Wunderground v.1.15,2013-04-08 08:30:00,
2013-04-08 04:35:00,39.2,34.2,29.99,NW,315,0.0,-999.0,82,0.00,,,0.00,Wunderground v.1.15,2013-04-08 08:35:00,
2013-04-08 04:45:00,39.1,34.1,29.99,NW,315,0.0,-999.0,82,0.00,,,0.00,Wunderground v.1.15,2013-04-08 08:45:00,
2013-04-08 04:50:00,39.0,34.3,29.99,NW,315,0.0,-999.0,83,0.00,,,0.00,Wunderground v.1.15,2013-04-08 08:50:00,
2013-04-08 04:55:00,38.9,34.2,29.99,NW,315,0.0,-999.0,83,0.00,,,0.00,Wunderground v.1.15,2013-04-08 08:55:00,
2013-04-08 05:00:00,38.9,34.2,29.99,NW,315,0.0,-999.0,83,0.00,,,0.00,Wunderground v.1.15,2013-04-08 09:00:00,
2013-04-08 05:05:00,38.9,34.2,29.99,NW,315,0.0,-999.0,83,0.00,,,0.00,Wunderground v.1.15,2013-04-08 09:05:00,
2013-04-08 05:10:00,38.9,34.2,29.99,NW,315,0.0,-999.0,83,0.00,,,0.00,Wunderground v.1.15,2013-04-08 09:10:00,
2013-04-08 05:15:00,38.9,34.2,29.99,NW,315,0.0,-999.0,83,0.00,,,0.00,Wunderground v.1.15,2013-04-08 09:15:00,
2013-04-08 05:20:00,38.9,34.2,29.99,NW,315,1.0,-999.0,83,0.00,,,0.00,Wunderground v.1.15,2013-04-08 09:20:00,
2013-04-08 05:25:00,38.8,34.1,29.99,NW,315,2.0,-999.0,83,0.00,,,0.00,Wunderground v.1.15,2013-04-08 09:25:00,
2013-04-08 05:30:00,38.8,34.4,29.99,NW,315,3.0,-999.0,84,0.00,,,0.00,Wunderground v.1.15,2013-04-08 09:30:00,
2013-04-08 05:35:00,38.7,34.3,30.00,NW,315,2.0,-999.0,84,0.00,,,0.00,Wunderground v.1.15,2013-04-08 09:35:00,
2013-04-08 05:40:00,38.6,34.2,30.00,NW,315,0.0,-999.0,84,0.00,,,0.00,Wunderground v.1.15,2013-04-08 09:40:00,
2013-04-08 05:45:00,38.6,34.2,29.99,NW,315,0.0,-999.0,84,0.00,,,0.00,Wunderground v.1.15,2013-04-08 09:45:00,
2013-04-08 05:50:00,38.6,34.5,29.99,NW,315,0.0,-999.0,85,0.00,,,0.00,Wunderground v.1.15,2013-04-08 09:50:00,
2013-04-08 05:55:00,38.6,34.2,29.99,NW,315,0.0,-999.0,84,0.00,,,0.00,Wunderground v.1.15,2013-04-08 09:55:00,
2013-04-08 06:00:00,38.7,34.3,30.00,NW,315,0.0,-999.0,84,0.00,,,0.00,Wunderground v.1.15,2013-04-08 10:00:00,
2013-04-08 06:05:00,38.7,34.3,30.00,NW,315,0.0,-999.0,84,0.00,,,0.00,Wunderground v.1.15,2013-04-08 10:05:00,
2013-04-08 06:10:00,38.8,34.4,30.00,NW,315,0.0,-999.0,84,0.00,,,0.00,Wunderground v.1.15,2013-04-08 10:10:00,
2013-04-08 06:15:00,38.8,34.4,30.00,NW,315,0.0,-999.0,84,0.00,,,0.00,Wunderground v.1.15,2013-04-08 10:15:00,
2013-04-08 06:20:00,38.7,34.3,30.00,NW,315,0.0,-999.0,84,0.00,,,0.00,Wunderground v.1.15,2013-04-08 10:20:00,
2013-04-08 06:25:00,38.6,34.2,30.00,NW,315,0.0,-999.0,84,0.00,,,0.00,Wunderground v.1.15,2013-04-08 10:25:00,
2013-04-08 06:30:00,38.5,34.1,30.00,NW,315,0.0,-999.0,84,0.00,,,0.00,Wunderground v.1.15,2013-04-08 10:30:00,
2013-04-08 06:35:00,38.4,34.3,30.00,NW,315,0.0,-999.0,85,0.00,,,0.00,Wunderground v.1.15,2013-04-08 10:35:00,
2013-04-08 06:40:00,38.4,34.3,30.01,NW,315,0.0,-999.0,85,0.00,,,0.00,Wunderground v.1.15,2013-04-08 10:40:00,
2013-04-08 06:45:00,38.3,34.2,30.01,NW,315,0.0,-999.0,85,0.00,,,0.00,Wunderground v.1.15,2013-04-08 10:45:00,
2013-04-08 06:50:00,38.3,34.2,30.00,NW,315,0.0,-999.0,85,0.00,,,0.00,Wunderground v.1.15,2013-04-08 10:50:00,
2013-04-08 06:55:00,38.3,34.2,30.01,NW,315,0.0,-999.0,85,0.00,,,0.00,Wunderground v.1.15,2013-04-08 10:55:00,
2013-04-08 07:00:00,38.2,34.1,30.00,NW,315,2.0,-999.0,85,0.00,,,0.00,Wunderground v.1.15,2013-04-08 11:00:00,
2013-04-08 07:05:00,38.2,34.1,30.01,NW,315,0.0,-999.0,85,0.00,,,0.00,Wunderground v.1.15,2013-04-08 11:05:00,
2013-04-08 07:10:00,38.1,34.0,30.01,NW,315,0.0,-999.0,85,0.00,,,0.00,Wunderground v.1.15,2013-04-08 11:10:00,
2013-04-08 07:15:00,38.1,34.0,30.02,NW,315,0.0,-999.0,85,0.00,,,0.00,Wunderground v.1.15,2013-04-08 11:15:00,
2013-04-08 07:20:00,38.0,33.9,30.02,NW,315,0.0,-999.0,85,0.00,,,0.00,Wunderground v.1.15,2013-04-08 11:20:00,
2013-04-08 07:25:00,38.0,33.9,30.03,NW,315,0.0,-999.0,85,0.00,,,0.00,Wunderground v.1.15,2013-04-08 11:25:00,
2013-04-08 07:35:00,38.1,34.3,30.03,NW,315,0.0,-999.0,86,0.00,,,0.00,Wunderground v.1.15,2013-04-08 11:35:00,
2013-04-08 07:40:00,38.1,34.3,30.03,NW,315,0.0,-999.0,86,0.00,,,0.00,Wunderground v.1.15,2013-04-08 11:40:00,
2013-04-08 07:45:00,38.2,34.4,30.03,NW,315,0.0,-999.0,86,0.00,,,0.00,Wunderground v.1.15,2013-04-08 11:45:00,
2013-04-08 07:50:00,38.3,34.5,30.04,NW,315,0.0,-999.0,86,0.00,,,0.00,Wunderground v.1.15,2013-04-08 11:50:00,
2013-04-08 08:00:00,38.6,34.5,30.04,NW,315,0.0,-999.0,85,0.00,,,0.00,Wunderground v.1.15,2013-04-08 12:00:00,
2013-04-08 08:05:00,38.8,34.7,30.04,NW,315,1.0,-999.0,85,0.00,,,0.00,Wunderground v.1.15,2013-04-08 12:05:00,
2013-04-08 08:10:00,38.9,34.8,30.04,NW,315,1.0,-999.0,85,0.00,,,0.00,Wunderground v.1.15,2013-04-08 12:10:00,
2013-04-08 08:15:00,39.0,34.9,30.05,NW,315,1.0,-999.0,85,0.00,,,0.00,Wunderground v.1.15,2013-04-08 12:15:00,
2013-04-08 08:20:00,39.3,35.2,30.04,NW,315,1.0,-999.0,85,0.00,,,0.00,Wunderground v.1.15,2013-04-08 12:20:00,
2013-04-08 08:25:00,39.5,35.1,30.04,NW,323,1.0,-999.0,84,0.00,,,0.00,Wunderground v.1.15,2013-04-08 12:25:00,
2013-04-08 08:30:00,39.8,35.4,30.04,NW,323,1.0,-999.0,84,0.00,,,0.00,Wunderground v.1.15,2013-04-08 12:30:00,
2013-04-08 08:35:00,40.0,35.3,30.05,NW,324,1.0,-999.0,83,0.00,,,0.00,Wunderground v.1.15,2013-04-08 12:35:00,
2013-04-08 08:40:00,40.2,35.4,30.05,NNW,330,1.0,-999.0,83,0.00,,,0.00,Wunderground v.1.15,2013-04-08 12:40:00,
2013-04-08 08:45:00,40.1,34.7,30.04,North,355,2.0,-999.0,81,0.00,,,0.00,Wunderground v.1.15,2013-04-08 12:45:00,
2013-04-08 08:50:00,40.1,35.0,30.04,NE,44,1.0,-999.0,82,0.00,,,0.00,Wunderground v.1.15,2013-04-08 12:50:00,
2013-04-08 08:55:00,40.2,34.8,30.04,NE,46,1.0,-999.0,81,0.00,,,0.00,Wunderground v.1.15,2013-04-08 12:55:00,
2013-04-08 09:00:00,40.4,35.0,30.05,NE,47,2.0,-999.0,81,0.00,,,0.00,Wunderground v.1.15,2013-04-08 13:00:00,
2013-04-08 09:05:00,40.7,35.3,30.04,NE,47,2.0,-999.0,81,0.00,,,0.00,Wunderground v.1.15,2013-04-08 13:05:00,
2013-04-08 09:10:00,40.9,35.2,30.04,NE,47,2.0,-999.0,80,0.00,,,0.00,Wunderground v.1.15,2013-04-08 13:10:00,
2013-04-08 09:15:00,41.1,35.4,30.04,NE,47,2.0,-999.0,80,0.00,,,0.00,Wunderground v.1.15,2013-04-08 13:15:00,
2013-04-08 09:20:00,41.4,35.7,30.04,ENE,57,2.0,-999.0,80,0.00,,,0.00,Wunderground v.1.15,2013-04-08 13:20:00,
2013-04-08 09:25:00,41.9,36.2,30.03,East,80,3.0,-999.0,80,0.00,,,0.00,Wunderground v.1.15,2013-04-08 13:25:00,
2013-04-08 09:30:00,42.1,36.1,30.04,East,83,3.0,-999.0,79,0.00,,,0.00,Wunderground v.1.15,2013-04-08 13:30:00,
2013-04-08 09:35:00,42.3,36.3,30.04,SE,130,4.0,-999.0,79,0.00,,,0.00,Wunderground v.1.15,2013-04-08 13:35:00,
2013-04-08 09:40:00,42.5,36.4,30.04,SE,130,3.0,-999.0,79,0.00,,,0.00,Wunderground v.1.15,2013-04-08 13:40:00,
2013-04-08 09:45:00,43.0,36.9,30.03,SE,130,1.0,-999.0,79,0.00,,,0.00,Wunderground v.1.15,2013-04-08 13:45:00,
2013-04-08 09:50:00,43.3,36.9,30.02,SE,130,2.0,-999.0,78,0.00,,,0.00,Wunderground v.1.15,2013-04-08 13:50:00,
2013-04-08 09:55:00,43.6,37.2,30.02,SE,130,2.0,-999.0,78,0.00,,,0.00,Wunderground v.1.15,2013-04-08 13:55:00,
2013-04-08 10:00:00,43.8,37.1,30.02,ESE,123,2.0,-999.0,77,0.00,,,0.00,Wunderground v.1.15,2013-04-08 14:00:00,
2013-04-08 10:05:00,44.0,37.3,30.03,ESE,123,2.0,-999.0,77,0.00,,,0.00,Wunderground v.1.15,2013-04-08 14:05:00,
2013-04-08 10:10:00,44.3,37.5,30.03,SE,126,3.0,-999.0,77,0.00,,,0.00,Wunderground v.1.15,2013-04-08 14:10:00,
2013-04-08 10:15:00,44.5,37.4,30.03,SE,128,4.0,-999.0,76,0.00,,,0.00,Wunderground v.1.15,2013-04-08 14:15:00,
2013-04-08 10:20:00,44.5,37.1,30.03,SSE,152,5.0,-999.0,75,0.00,,,0.00,Wunderground v.1.15,2013-04-08 14:20:00,
2013-04-08 10:25:00,44.9,37.8,30.02,SSE,152,4.0,-999.0,76,0.00,,,0.00,Wunderground v.1.15,2013-04-08 14:25:00,
2013-04-08 10:30:00,45.4,38.3,30.02,SSE,152,2.0,-999.0,76,0.00,,,0.00,Wunderground v.1.15,2013-04-08 14:30:00,
2013-04-08 10:35:00,45.8,38.0,30.02,SSE,150,3.0,-999.0,74,0.00,,,0.00,Wunderground v.1.15,2013-04-08 14:35:00,
2013-04-08 10:40:00,45.8,37.6,30.02,SSE,150,3.0,-999.0,73,0.00,,,0.00,Wunderground v.1.15,2013-04-08 14:40:00,
2013-04-08 10:45:00,46.0,37.8,30.01,SSE,150,3.0,-999.0,73,0.00,,,0.00,Wunderground v.1.15,2013-04-08 14:45:00,
2013-04-08 10:50:00,46.6,38.4,30.01,SSE,150,2.0,-999.0,73,0.00,,,0.00,Wunderground v.1.15,2013-04-08 14:50:00,
2013-04-08 10:55:00,47.1,38.5,30.01,SSE,150,2.0,-999.0,72,0.00,,,0.00,Wunderground v.1.15,2013-04-08 14:55:00,
2013-04-08 11:00:00,47.4,38.5,30.01,SSE,159,2.0,-999.0,71,0.00,,,0.00,Wunderground v.1.15,2013-04-08 15:00:00,
2013-04-08 11:05:00,48.1,38.8,30.01,SSE,159,3.0,-999.0,70,0.00,,,0.00,Wunderground v.1.15,2013-04-08 15:05:00,
2013-04-08 11:10:00,48.4,38.7,30.01,SSE,156,3.0,-999.0,69,0.00,,,0.00,Wunderground v.1.15,2013-04-08 15:10:00,
2013-04-08 11:20:00,48.6,38.5,30.00,SSE,156,3.0,-999.0,68,0.00,,,0.00,Wunderground v.1.15,2013-04-08 15:20:00,
2013-04-08 11:25:00,48.7,38.2,30.00,SSE,152,4.0,-999.0,67,0.00,,,0.00,Wunderground v.1.15,2013-04-08 15:25:00,
2013-04-08 11:30:00,48.9,38.4,30.00,SSE,149,4.0,-999.0,67,0.00,,,0.00,Wunderground v.1.15,2013-04-08 15:30:00,
2013-04-08 11:35:00,49.4,38.9,30.00,SSE,149,3.0,-999.0,67,0.00,,,0.00,Wunderground v.1.15,2013-04-08 15:35:00,
2013-04-08 11:40:00,49.6,38.7,30.00,SSE,149,3.0,-999.0,66,0.00,,,0.00,Wunderground v.1.15,2013-04-08 15:40:00,
2013-04-08 11:45:00,49.6,38.7,30.00,SSE,159,4.0,-999.0,66,0.00,,,0.00,Wunderground v.1.15,2013-04-08 15:45:00,
2013-04-08 11:50:00,50.0,39.5,30.00,SSE,159,3.0,-999.0,67,0.00,,,0.00,Wunderground v.1.15,2013-04-08 15:50:00,
2013-04-08 11:55:00,50.5,39.2,30.00,SSE,155,2.0,-999.0,65,0.00,,,0.00,Wunderground v.1.15,2013-04-08 15:55:00,
2013-04-08 12:00:00,50.8,39.1,29.99,SSE,155,2.0,-999.0,64,0.00,,,0.00,Wunderground v.1.15,2013-04-08 16:00:00,
2013-04-08 12:05:00,51.2,39.8,29.99,SSE,155,2.0,-999.0,65,0.00,,,0.00,Wunderground v.1.15,2013-04-08 16:05:00,
2013-04-08 12:10:00,51.6,40.2,29.99,SSE,155,3.0,-999.0,65,0.00,,,0.00,Wunderground v.1.15,2013-04-08 16:10:00,
2013-04-08 12:15:00,52.0,40.2,29.99,SSE,155,3.0,-999.0,64,0.00,,,0.00,Wunderground v.1.15,2013-04-08 16:15:00,
2013-04-08 12:20:00,52.3,39.7,29.99,SSE,155,2.0,-999.0,62,0.00,,,0.00,Wunderground v.1.15,2013-04-08 16:20:00,
2013-04-08 12:25:00,52.5,39.8,29.98,SE,130,2.0,-999.0,62,0.00,,,0.00,Wunderground v.1.15,2013-04-08 16:25:00,
2013-04-08 12:30:00,53.0,39.9,29.98,SE,130,3.0,-999.0,61,0.00,,,0.00,Wunderground v.1.15,2013-04-08 16:30:00,
2013-04-08 12:35:00,53.2,40.1,29.98,SE,130,1.0,-999.0,61,0.00,,,0.00,Wunderground v.1.15,2013-04-08 16:35:00,
2013-04-08 12:40:00,53.6,39.6,29.98,SE,135,2.0,-999.0,59,0.00,,,0.00,Wunderground v.1.15,2013-04-08 16:40:00,
2013-04-08 12:45:00,53.7,39.7,29.97,ESE,118,4.0,-999.0,59,0.00,,,0.00,Wunderground v.1.15,2013-04-08 16:45:00,
2013-04-08 12:50:00,54.0,40.0,29.97,ESE,122,3.0,-999.0,59,0.00,,,0.00,Wunderground v.1.15,2013-04-08 16:50:00,
2013-04-08 12:55:00,54.3,40.3,29.97,SE,132,3.0,-999.0,59,0.00,,,0.00,Wunderground v.1.15,2013-04-08 16:55:00,
2013-04-08 13:00:00,54.7,40.2,29.97,SE,132,3.0,-999.0,58,0.00,,,0.00,Wunderground v.1.15,2013-04-08 17:00:00,
2013-04-08 13:05:00,54.8,40.3,29.97,SE,132,2.0,-999.0,58,0.00,,,0.00,Wunderground v.1.15,2013-04-08 17:05:00,
2013-04-08 13:10:00,55.0,40.9,29.96,ESE,123,2.0,-999.0,59,0.00,,,0.00,Wunderground v.1.15,2013-04-08 17:10:00,
2013-04-08 13:15:00,55.7,41.6,29.96,ESE,115,2.0,-999.0,59,0.00,,,0.00,Wunderground v.1.15,2013-04-08 17:15:00,
2013-04-08 13:20:00,56.2,40.7,29.95,ESE,115,2.0,-999.0,56,0.00,,,0.00,Wunderground v.1.15,2013-04-08 17:20:00,
2013-04-08 13:25:00,56.2,40.7,29.95,ESE,115,1.0,-999.0,56,0.00,,,0.00,Wunderground v.1.15,2013-04-08 17:25:00,
2013-04-08 13:30:00,56.5,41.0,29.95,ESE,115,2.0,-999.0,56,0.00,,,0.00,Wunderground v.1.15,2013-04-08 17:30:00,
2013-04-08 13:35:00,56.6,40.6,29.95,ESE,115,2.0,-999.0,55,0.00,,,0.00,Wunderground v.1.15,2013-04-08 17:35:00,
2013-04-08 13:40:00,56.6,40.1,29.95,ESE,115,3.0,-999.0,54,0.00,,,0.00,Wunderground v.1.15,2013-04-08 17:40:00,
2013-04-08 13:50:00,57.5,41.0,29.94,ESE,115,1.0,-999.0,54,0.00,,,0.00,Wunderground v.1.15,2013-04-08 17:50:00,
2013-04-08 13:55:00,58.1,41.0,29.94,ESE,115,1.0,-999.0,53,0.00,,,0.00,Wunderground v.1.15,2013-04-08 17:55:00,
2013-04-08 14:00:00,58.5,40.9,29.93,ESE,115,2.0,-999.0,52,0.00,,,0.00,Wunderground v.1.15,2013-04-08 18:00:00,
2013-04-08 14:05:00,58.7,40.6,29.93,ESE,115,1.0,-999.0,51,0.00,,,0.00,Wunderground v.1.15,2013-04-08 18:05:00,
2013-04-08 14:10:00,58.7,40.6,29.93,ESE,105,2.0,-999.0,51,0.00,,,0.00,Wunderground v.1.15,2013-04-08 18:10:00,
2013-04-08 14:15:00,58.8,40.7,29.92,ESE,105,2.0,-999.0,51,0.00,,,0.00,Wunderground v.1.15,2013-04-08 18:15:00,
2013-04-08 14:20:00,59.3,41.2,29.92,ESE,105,1.0,-999.0,51,0.00,,,0.00,Wunderground v.1.15,2013-04-08 18:20:00,
2013-04-08 14:25:00,59.5,41.3,29.92,ESE,105,2.0,-999.0,51,0.00,,,0.00,Wunderground v.1.15,2013-04-08 18:25:00,
2013-04-08 14:30:00,60.0,41.3,29.91,ESE,105,2.0,-999.0,50,0.00,,,0.00,Wunderground v.1.15,2013-04-08 18:30:00,
2013-04-08 14:35:00,60.3,41.0,29.91,ESE,105,2.0,-999.0,49,0.00,,,0.00,Wunderground v.1.15,2013-04-08 18:35:00,
2013-04-08 14:40:00,60.7,40.9,29.91,ESE,105,2.0,-999.0,48,0.00,,,0.00,Wunderground v.1.15,2013-04-08 18:40:00,
2013-04-08 14:45:00,60.7,41.4,29.90,ESE,105,2.0,-999.0,49,0.00,,,0.00,Wunderground v.1.15,2013-04-08 18:45:00,
2013-04-08 14:50:00,60.9,41.6,29.90,ESE,105,1.0,-999.0,49,0.00,,,0.00,Wunderground v.1.15,2013-04-08 18:50:00,
2013-04-08 14:55:00,61.2,41.3,29.90,ESE,105,3.0,-999.0,48,0.00,,,0.00,Wunderground v.1.15,2013-04-08 18:55:00,
2013-04-08 15:00:00,61.1,40.7,29.90,ESE,105,4.0,-999.0,47,0.00,,,0.00,Wunderground v.1.15,2013-04-08 19:00:00,
2013-04-08 15:05:00,61.3,42.0,29.90,ESE,105,3.0,-999.0,49,0.00,,,0.00,Wunderground v.1.15,2013-04-08 19:05:00,
2013-04-08 15:10:00,61.8,42.4,29.89,ESE,105,3.0,-999.0,49,0.00,,,0.00,Wunderground v.1.15,2013-04-08 19:10:00,
2013-04-08 15:15:00,62.1,42.7,29.89,NE,56,4.0,-999.0,49,0.00,,,0.00,Wunderground v.1.15,2013-04-08 19:15:00,
2013-04-08 15:20:00,62.2,42.3,29.88,NE,55,5.0,-999.0,48,0.00,,,0.00,Wunderground v.1.15,2013-04-08 19:20:00,
2013-04-08 15:25:00,62.4,42.4,29.87,NE,54,4.0,-999.0,48,0.00,,,0.00,Wunderground v.1.15,2013-04-08 19:25:00,
2013-04-08 15:30:00,62.6,42.1,29.87,NE,54,4.0,-999.0,47,0.00,,,0.00,Wunderground v.1.15,2013-04-08 19:30:00,
2013-04-08 15:35:00,62.3,41.8,29.87,NE,52,4.0,-999.0,47,0.00,,,0.00,Wunderground v.1.15,2013-04-08 19:35:00,
2013-04-08 15:40:00,61.8,41.9,29.87,NE,51,5.0,-999.0,48,0.00,,,0.00,Wunderground v.1.15,2013-04-08 19:40:00,
2013-04-08 15:50:00,61.5,41.6,29.86,NE,52,4.0,-999.0,48,0.00,,,0.00,Wunderground v.1.15,2013-04-08 19:50:00,
2013-04-08 15:55:00,61.3,40.9,29.86,NE,52,4.0,-999.0,47,0.00,,,0.00,Wunderground v.1.15,2013-04-08 19:55:00,
2013-04-08 16:00:00,61.3,41.4,29.86,NE,52,5.0,-999.0,48,0.00,,,0.00,Wunderground v.1.15,2013-04-08 20:00:00,
2013-04-08 16:05:00,61.2,41.3,29.86,NE,52,5.0,-999.0,48,0.00,,,0.00,Wunderground v.1.15,2013-04-08 20:05:00,
2013-04-08 16:10:00,61.1,41.2,29.85,NE,51,5.0,-999.0,48,0.00,,,0.00,Wunderground v.1.15,2013-04-08 20:10:00,
2013-04-08 16:15:00,60.9,41.6,29.84,NE,54,6.0,-999.0,49,0.00,,,0.00,Wunderground v.1.15,2013-04-08 20:15:00,
2013-04-08 16:20:00,60.9,41.1,29.84,NE,50,6.0,-999.0,48,0.00,,,0.00,Wunderground v.1.15,2013-04-08 20:20:00,
2013-04-08 16:25:00,61.0,41.7,29.84,NE,50,6.0,-999.0,49,0.00,,,0.00,Wunderground v.1.15,2013-04-08 20:25:00,
2013-04-08 16:30:00,61.1,41.8,29.85,NE,50,5.0,-999.0,49,0.00,,,0.00,Wunderground v.1.15,2013-04-08 20:30:00,
2013-04-08 16:35:00,61.0,41.7,29.84,NE,50,5.0,-999.0,49,0.00,,,0.00,Wunderground v.1.15,2013-04-08 20:35:00,
2013-04-08 16:40:00,60.6,41.3,29.85,NE,50,5.0,-999.0,49,0.00,,,0.00,Wunderground v.1.15,2013-04-08 20:40:00,
2013-04-08 16:50:00,60.2,42.0,29.85,NE,50,3.0,-999.0,51,0.00,,,0.00,Wunderground v.1.15,2013-04-08 20:50:00,
2013-04-08 16:55:00,59.9,42.7,29.85,NE,50,3.0,-999.0,53,0.00,,,0.00,Wunderground v.1.15,2013-04-08 20:55:00,
2013-04-08 17:05:00,59.3,45.8,29.85,NE,50,2.0,-999.0,61,0.00,,,0.00,Wunderground v.1.15,2013-04-08 21:05:00,
2013-04-08 17:10:00,58.9,45.0,29.85,NE,50,3.0,-999.0,60,0.00,,,0.00,Wunderground v.1.15,2013-04-08 21:10:00,
2013-04-08 17:15:00,58.7,45.7,29.84,NE,50,3.0,-999.0,62,0.00,,,0.00,Wunderground v.1.15,2013-04-08 21:15:00,
2013-04-08 17:20:00,58.5,45.5,29.84,NE,50,3.0,-999.0,62,0.00,,,0.00,Wunderground v.1.15,2013-04-08 21:20:00,
2013-04-08 17:30:00,58.0,45.5,29.82,NE,50,4.0,-999.0,63,0.00,,,0.00,Wunderground v.1.15,2013-04-08 21:30:00,
2013-04-08 17:40:00,57.6,45.5,29.82,NE,50,4.0,-999.0,64,0.00,,,0.00,Wunderground v.1.15,2013-04-08 21:40:00,
2013-04-08 17:45:00,57.5,45.0,29.82,NE,50,3.0,-999.0,63,0.00,,,0.00,Wunderground v.1.15,2013-04-08 21:45:00,
2013-04-08 17:50:00,57.5,45.0,29.81,NE,50,4.0,-999.0,63,0.00,,,0.00,Wunderground v.1.15,2013-04-08 21:50:00,
2013-04-08 17:55:00,57.5,45.4,29.81,NE,50,3.0,-999.0,64,0.00,,,0.00,Wunderground v.1.15,2013-04-08 21:55:00,
2013-04-08 18:00:00,57.5,45.4,29.81,NE,50,2.0,-999.0,64,0.00,,,0.00,Wunderground v.1.15,2013-04-08 22:00:00,
2013-04-08 18:05:00,57.4,44.9,29.81,NE,50,1.0,-999.0,63,0.00,,,0.00,Wunderground v.1.15,2013-04-08 22:05:00,
2013-04-08 18:10:00,57.4,44.9,29.81,NE,50,1.0,-999.0,63,0.00,,,0.00,Wunderground v.1.15,2013-04-08 22:10:00,
2013-04-08 18:15:00,57.3,45.2,29.80,NE,50,1.0,-999.0,64,0.00,,,0.00,Wunderground v.1.15,2013-04-08 22:15:00,
2013-04-08 18:20:00,57.3,45.2,29.80,NE,50,1.0,-999.0,64,0.00,,,0.00,Wunderground v.1.15,2013-04-08 22:20:00,
2013-04-08 18:25:00,57.0,44.5,29.79,NE,50,2.0,-999.0,63,0.00,,,0.00,Wunderground v.1.15,2013-04-08 22:25:00,
2013-04-08 18:30:00,56.9,44.4,29.80,NE,50,2.0,-999.0,63,0.00,,,0.00,Wunderground v.1.15,2013-04-08 22:30:00,
2013-04-08 18:35:00,56.9,44.8,29.80,NE,50,1.0,-999.0,64,0.00,,,0.00,Wunderground v.1.15,2013-04-08 22:35:00,
2013-04-08 18:40:00,56.8,44.7,29.79,NE,50,1.0,-999.0,64,0.00,,,0.00,Wunderground v.1.15,2013-04-08 22:40:00,
2013-04-08 18:50:00,56.6,44.1,29.79,NE,50,0.0,-999.0,63,0.00,,,0.00,Wunderground v.1.15,2013-04-08 22:50:00,
2013-04-08 18:55:00,56.6,44.6,29.79,NE,50,0.0,-999.0,64,0.00,,,0.00,Wunderground v.1.15,2013-04-08 22:55:00,
2013-04-08 19:00:00,56.4,44.8,29.79,NE,50,1.0,-999.0,65,0.00,,,0.00,Wunderground v.1.15,2013-04-08 23:00:00,
2013-04-08 19:05:00,56.2,45.4,29.79,NE,50,3.0,-999.0,67,0.00,,,0.00,Wunderground v.1.15,2013-04-08 23:05:00,
2013-04-08 19:10:00,56.0,46.0,29.78,NE,50,3.0,-999.0,69,0.00,,,0.00,Wunderground v.1.15,2013-04-08 23:10:00,
2013-04-08 19:15:00,55.7,45.7,29.78,NE,50,2.0,-999.0,69,0.00,,,0.00,Wunderground v.1.15,2013-04-08 23:15:00,
2013-04-08 19:20:00,55.6,46.3,29.78,NE,50,2.0,-999.0,71,0.00,,,0.00,Wunderground v.1.15,2013-04-08 23:20:00,
2013-04-08 19:25:00,55.4,45.8,29.78,NE,50,2.0,-999.0,70,0.00,,,0.00,Wunderground v.1.15,2013-04-08 23:25:00,
2013-04-08 19:30:00,55.3,45.3,29.78,NE,50,4.0,-999.0,69,0.00,,,0.00,Wunderground v.1.15,2013-04-08 23:30:00,
2013-04-08 19:35:00,55.3,45.7,29.78,NE,50,4.0,-999.0,70,0.00,,,0.00,Wunderground v.1.15,2013-04-08 23:35:00,
2013-04-08 19:40:00,55.1,45.9,29.79,NNW,327,4.0,-999.0,71,0.00,,,0.00,Wunderground v.1.15,2013-04-08 23:40:00,
2013-04-08 19:45:00,54.9,45.7,29.79,NNW,327,3.0,-999.0,71,0.00,,,0.00,Wunderground v.1.15,2013-04-08 23:45:00,
2013-04-08 19:50:00,54.7,45.8,29.80,NNW,327,3.0,-999.0,72,0.00,,,0.00,Wunderground v.1.15,2013-04-08 23:50:00,
2013-04-08 19:55:00,54.3,45.5,29.79,NNW,340,5.0,-999.0,72,0.00,,,0.00,Wunderground v.1.15,2013-04-08 23:55:00,
2013-04-08 20:00:00,54.0,45.5,29.80,NNW,340,9.0,-999.0,73,0.00,,,0.00,Wunderground v.1.15,2013-04-09 00:00:00,
2013-04-08 20:05:00,53.7,45.2,29.80,NNW,340,8.0,-999.0,73,0.00,,,0.00,Wunderground v.1.15,2013-04-09 00:05:00,
2013-04-08 20:10:00,53.7,45.6,29.80,NNW,344,7.0,-999.0,74,0.00,,,0.00,Wunderground v.1.15,2013-04-09 00:10:00,
2013-04-08 20:15:00,53.6,45.5,29.79,NNW,344,5.0,-999.0,74,0.00,,,0.00,Wunderground v.1.15,2013-04-09 00:15:00,
2013-04-08 20:20:00,53.5,45.4,29.78,NNW,346,4.0,-999.0,74,0.00,,,0.00,Wunderground v.1.15,2013-04-09 00:20:00,
2013-04-08 20:25:00,53.2,45.5,29.78,NNW,346,3.0,-999.0,75,0.00,,,0.00,Wunderground v.1.15,2013-04-09 00:25:00,
2013-04-08 20:30:00,52.8,45.1,29.78,NNW,346,2.0,-999.0,75,0.00,,,0.00,Wunderground v.1.15,2013-04-09 00:30:00,
2013-04-08 20:35:00,52.5,45.2,29.78,NNW,346,1.0,-999.0,76,0.00,,,0.00,Wunderground v.1.15,2013-04-09 00:35:00,
2013-04-08 20:40:00,52.3,45.0,29.78,NNW,346,0.0,-999.0,76,0.00,,,0.00,Wunderground v.1.15,2013-04-09 00:40:00,
2013-04-08 20:45:00,52.1,45.1,29.78,NNW,346,0.0,-999.0,77,0.00,,,0.00,Wunderground v.1.15,2013-04-09 00:45:00,
2013-04-08 20:50:00,52.0,45.4,29.78,NNW,346,0.0,-999.0,78,0.00,,,0.00,Wunderground v.1.15,2013-04-09 00:50:00,
2013-04-08 20:55:00,51.8,44.8,29.78,NNW,346,0.0,-999.0,77,0.00,,,0.00,Wunderground v.1.15,2013-04-09 00:55:00,
2013-04-08 21:00:00,51.4,44.8,29.77,NNW,346,0.0,-999.0,78,0.00,,,0.00,Wunderground v.1.15,2013-04-09 01:00:00,
2013-04-08 21:05:00,51.2,44.9,29.77,NNW,346,0.0,-999.0,79,0.00,,,0.00,Wunderground v.1.15,2013-04-09 01:05:00,
2013-04-08 21:10:00,51.0,45.0,29.77,NNW,346,1.0,-999.0,80,0.00,,,0.00,Wunderground v.1.15,2013-04-09 01:10:00,
2013-04-08 21:15:00,50.8,45.5,29.77,NNW,338,3.0,-999.0,82,0.00,,,0.00,Wunderground v.1.15,2013-04-09 01:15:00,
2013-04-08 21:20:00,51.0,46.0,29.77,WNW,300,4.0,-999.0,83,0.00,,,0.00,Wunderground v.1.15,2013-04-09 01:20:00,
2013-04-08 21:25:00,51.2,46.2,29.77,West,279,4.0,-999.0,83,0.00,,,0.00,Wunderground v.1.15,2013-04-09 01:25:00,
2013-04-08 21:30:00,51.5,46.5,29.77,West,267,4.0,-999.0,83,0.00,,,0.00,Wunderground v.1.15,2013-04-09 01:30:00,
2013-04-08 21:35:00,52.2,46.9,29.77,West,267,4.0,-999.0,82,0.00,,,0.00,Wunderground v.1.15,2013-04-09 01:35:00,
2013-04-08 21:40:00,52.7,47.0,29.76,WSW,237,4.0,-999.0,81,0.00,,,0.00,Wunderground v.1.15,2013-04-09 01:40:00,
2013-04-08 21:45:00,54.4,47.7,29.76,SSW,213,6.0,-999.0,78,0.00,,,0.00,Wunderground v.1.15,2013-04-09 01:45:00,
2013-04-08 21:50:00,55.7,47.9,29.76,SW,215,8.0,-999.0,75,0.00,,,0.00,Wunderground v.1.15,2013-04-09 01:50:00,
2013-04-08 21:55:00,56.6,48.4,29.76,SSW,207,8.0,-999.0,74,0.00,,,0.00,Wunderground v.1.15,2013-04-09 01:55:00,
2013-04-08 22:00:00,57.7,49.1,29.75,SSW,205,10.0,-999.0,73,0.00,,,0.00,Wunderground v.1.15,2013-04-09 02:00:00,
2013-04-08 22:05:00,58.7,49.7,29.75,SSW,199,10.0,-999.0,72,0.00,,,0.00,Wunderground v.1.15,2013-04-09 02:05:00,
2013-04-08 22:10:00,59.1,50.1,29.76,SSW,209,9.0,-999.0,72,0.00,,,0.00,Wunderground v.1.15,2013-04-09 02:10:00,
2013-04-08 22:15:00,59.4,50.4,29.76,SSW,213,8.0,-999.0,72,0.00,,,0.00,Wunderground v.1.15,2013-04-09 02:15:00,
2013-04-08 22:25:00,60.1,50.7,29.75,SSW,209,8.0,-999.0,71,0.00,,,0.00,Wunderground v.1.15,2013-04-09 02:25:00,
2013-04-08 22:30:00,60.0,50.6,29.75,SSW,209,9.0,-999.0,71,0.00,,,0.00,Wunderground v.1.15,2013-04-09 02:30:00,
2013-04-08 22:35:00,60.0,50.6,29.75,SSW,207,9.0,-999.0,71,0.00,,,0.00,Wunderground v.1.15,2013-04-09 02:35:00,
2013-04-08 22:40:00,60.1,50.7,29.75,SSW,211,9.0,-999.0,71,0.00,,,0.00,Wunderground v.1.15,2013-04-09 02:40:00,
2013-04-08 22:45:00,60.6,50.8,29.75,SSW,211,9.0,-999.0,70,0.00,,,0.00,Wunderground v.1.15,2013-04-09 02:45:00,
2013-04-08 22:50:00,61.2,50.9,29.75,SSW,209,9.0,-999.0,69,0.00,,,0.00,Wunderground v.1.15,2013-04-09 02:50:00,
2013-04-08 22:55:00,61.5,50.8,29.75,SSW,211,10.0,-999.0,68,0.00,,,0.00,Wunderground v.1.15,2013-04-09 02:55:00,
2013-04-08 23:00:00,61.5,50.4,29.74,SSW,208,10.0,-999.0,67,0.00,,,0.00,Wunderground v.1.15,2013-04-09 03:00:00,
2013-04-08 23:10:00,62.5,50.6,29.74,SW,217,12.0,-999.0,65,0.00,,,0.00,Wunderground v.1.15,2013-04-09 03:10:00,
2013-04-08 23:15:00,63.1,50.7,29.74,SW,221,12.0,-999.0,64,0.00,,,0.00,Wunderground v.1.15,2013-04-09 03:15:00,
2013-04-08 23:20:00,63.0,50.6,29.74,SW,225,12.0,-999.0,64,0.00,,,0.00,Wunderground v.1.15,2013-04-09 03:20:00,
2013-04-08 23:25:00,62.9,51.0,29.74,SSW,213,11.0,-999.0,65,0.00,,,0.00,Wunderground v.1.15,2013-04-09 03:25:00,
2013-04-08 23:30:00,62.8,50.9,29.73,SW,221,10.0,-999.0,65,0.00,,,0.00,Wunderground v.1.15,2013-04-09 03:30:00,
2013-04-08 23:35:00,63.1,50.7,29.73,SW,220,11.0,-999.0,64,0.00,,,0.00,Wunderground v.1.15,2013-04-09 03:35:00,
2013-04-08 23:40:00,62.9,51.0,29.73,SW,227,11.0,-999.0,65,0.00,,,0.00,Wunderground v.1.15,2013-04-09 03:40:00,
2013-04-08 23:45:00,63.1,50.7,29.73,SSW,211,10.0,-999.0,64,0.00,,,0.00,Wunderground v.1.15,2013-04-09 03:45:00,
2013-04-08 23:50:00,63.6,50.8,29.73,SW,217,11.0,-999.0,63,0.00,,,0.00,Wunderground v.1.15,2013-04-09 03:50:00,
2013-04-08 23:55:00,64.2,50.9,29.73,SW,217,12.0,-999.0,62,0.00,,,0.00,Wunderground v.1.15,2013-04-09 03:55:00,